| time (UTC) | temp C | wind direction | speed KPH | gust KPH | rain 1hr cm | rain 24hr cm | rain mn cm | humidity % | barometer mb |
| 20260506231516 | 15 | 59 | 4.8 | 6.4 | 0.00 | 0.66 | 0.00 | 87 | 1009.0 |
| 20260506230516 | 15 | 50 | 3.2 | 6.4 | 0.00 | 0.66 | 0.00 | 88 | 1009.0 |
| 20260506225536 | 15 | 57 | 3.2 | 8.0 | 0.00 | 0.66 | 0.00 | 88 | 1009.1 |
| 20260506224516 | 15 | 70 | 4.8 | 9.7 | 0.00 | 0.66 | 0.00 | 87 | 1009.1 |
| 20260506223515 | 15 | 73 | 3.2 | 11.3 | 0.00 | 0.66 | 0.00 | 87 | 1009.1 |
| 20260506222515 | 15 | 75 | 3.2 | 11.3 | 0.00 | 0.66 | 0.00 | 87 | 1009.1 |
| 20260506221515 | 15 | 74 | 4.8 | 9.7 | 0.00 | 0.66 | 0.00 | 87 | 1009.0 |
| 20260506220517 | 15 | 73 | 1.6 | 8.0 | 0.00 | 0.69 | 0.00 | 87 | 1009.0 |
| 20260506215517 | 15 | 73 | 3.2 | 8.0 | 0.00 | 0.71 | 0.00 | 87 | 1009.0 |
| 20260506214517 | 15 | 68 | 4.8 | 8.0 | 0.00 | 0.71 | 0.00 | 87 | 1009.0 |
| 20260506213517 | 15 | 124 | 3.2 | 4.8 | 0.00 | 0.71 | 0.00 | 87 | 1009.1 |
| 20260506212517 | 15 | 124 | 1.6 | 4.8 | 0.00 | 0.71 | 0.00 | 87 | 1009.1 |
| 20260506211516 | 15 | 126 | 3.2 | 4.8 | 0.00 | 0.71 | 0.00 | 86 | 1009.1 |
| 20260506210516 | 15 | 124 | 0.0 | 1.6 | 0.00 | 0.71 | 0.00 | 87 | 1009.2 |
| 20260506205516 | 15 | 126 | 1.6 | 8.0 | 0.00 | 0.71 | 0.00 | 86 | 1009.2 |
| 20260506204535 | 15 | 102 | 3.2 | 8.0 | 0.00 | 0.71 | 0.00 | 87 | 1009.1 |
| 20260506203515 | 15 | 112 | 3.2 | 6.4 | 0.00 | 0.71 | 0.00 | 87 | 1009.0 |
| 20260506202515 | 15 | 123 | 3.2 | 6.4 | 0.00 | 0.71 | 0.00 | 87 | 1009.0 |
| 20260506201517 | 15 | 124 | 1.6 | 4.8 | 0.00 | 0.71 | 0.00 | 87 | 1008.9 |
| 20260506200516 | 15 | 138 | 3.2 | 4.8 | 0.00 | 0.74 | 0.00 | 88 | 1008.9 |
| 20260506195515 | 15 | 138 | 3.2 | 4.8 | 0.00 | 0.74 | 0.00 | 87 | 1008.8 |
| 20260506194535 | 16 | 138 | 1.6 | 4.8 | 0.00 | 0.76 | 0.00 | 87 | 1008.6 |
| 20260506193515 | 16 | 145 | 1.6 | 4.8 | 0.00 | 0.76 | 0.00 | 87 | 1008.5 |
| 20260506192518 | 16 | 154 | 3.2 | 6.4 | 0.00 | 0.76 | 0.00 | 87 | 1008.5 |
| 20260506191517 | 16 | 146 | 3.2 | 8.0 | 0.00 | 0.76 | 0.00 | 87 | 1008.4 |
| 20260506190517 | 16 | 152 | 3.2 | 8.0 | 0.00 | 0.76 | 0.00 | 87 | 1008.2 |
| 20260506185516 | 16 | 134 | 4.8 | 12.9 | 0.00 | 0.76 | 0.00 | 87 | 1008.0 |
| 20260506184516 | 16 | 128 | 4.8 | 11.3 | 0.00 | 0.76 | 0.00 | 87 | 1008.0 |
| 20260506183516 | 16 | 126 | 3.2 | 9.7 | 0.00 | 0.76 | 0.00 | 87 | 1008.1 |
| 20260506182536 | 16 | 125 | 4.8 | 9.7 | 0.00 | 0.76 | 0.00 | 87 | 1008.1 |
| 20260506181515 | 16 | 132 | 3.2 | 6.4 | 0.00 | 0.76 | 0.00 | 87 | 1008.0 |
| 20260506180515 | 16 | 135 | 1.6 | 6.4 | 0.00 | 0.76 | 0.00 | 87 | 1008.0 |
| 20260506175515 | 16 | 145 | 3.2 | 8.0 | 0.00 | 0.76 | 0.00 | 87 | 1008.0 |
| 20260506174538 | 16 | 137 | 3.2 | 8.0 | 0.00 | 0.76 | 0.00 | 87 | 1008.0 |
| 20260506173517 | 16 | 154 | 3.2 | 8.0 | 0.00 | 0.79 | 0.00 | 87 | 1007.9 |
| 20260506172517 | 16 | 158 | 1.6 | 8.0 | 0.00 | 0.79 | 0.00 | 87 | 1007.9 |
| 20260506171516 | 16 | 154 | 3.2 | 8.0 | 0.00 | 0.79 | 0.00 | 87 | 1007.8 |
| 20260506170516 | 16 | 151 | 1.6 | 4.8 | 0.00 | 0.79 | 0.00 | 88 | 1007.7 |
| 20260506165516 | 16 | 152 | 3.2 | 6.4 | 0.03 | 0.79 | 0.00 | 88 | 1007.7 |
| 20260506164516 | 16 | 178 | 1.6 | 6.4 | 0.08 | 0.79 | 0.00 | 88 | 1007.8 |
| 20260506163515 | 16 | 141 | 3.2 | 8.0 | 0.10 | 0.79 | 0.00 | 88 | 1007.8 |
| 20260506162515 | 16 | 147 | 4.8 | 9.7 | 0.18 | 0.79 | 0.00 | 88 | 1007.8 |
| 20260506161515 | 16 | 156 | 3.2 | 12.9 | 0.25 | 0.79 | 0.00 | 88 | 1007.7 |
| 20260506160536 | 16 | 158 | 6.4 | 14.5 | 0.33 | 0.79 | 0.43 | 88 | 1007.7 |
| 20260506155516 | 16 | 162 | 8.0 | 19.3 | 0.33 | 0.79 | 0.41 | 89 | 1007.7 |
| 20260506154515 | 16 | 154 | 9.7 | 27.4 | 0.30 | 0.74 | 0.33 | 89 | 1007.7 |
| 20260506153515 | 16 | 159 | 4.8 | 22.5 | 0.28 | 0.74 | 0.33 | 90 | 1007.7 |
| 20260506152515 | 17 | 132 | 6.4 | 16.1 | 0.20 | 0.69 | 0.23 | 89 | 1007.8 |
| 20260506151537 | 17 | 131 | 4.8 | 11.3 | 0.13 | 0.61 | 0.15 | 89 | 1007.8 |
| 20260506150517 | 17 | 132 | 4.8 | 19.3 | 0.05 | 0.53 | 0.10 | 90 | 1007.8 |
| 20260506145517 | 17 | 133 | 4.8 | 12.9 | 0.03 | 0.51 | 0.05 | 90 | 1007.8 |
| 20260506144517 | 17 | 127 | 4.8 | 14.5 | 0.00 | 0.51 | 0.05 | 89 | 1007.8 |
| 20260506143517 | 17 | 125 | 9.7 | 17.7 | 0.00 | 0.53 | 0.05 | 89 | 1007.9 |
| 20260506142516 | 17 | 120 | 8.0 | 17.7 | 0.00 | 0.58 | 0.05 | 89 | 1008.0 |
| 20260506141516 | 17 | 121 | 9.7 | 16.1 | 0.00 | 0.61 | 0.05 | 89 | 1008.1 |
| 20260506140515 | 18 | 107 | 8.0 | 16.1 | 0.00 | 0.64 | 0.05 | 89 | 1008.1 |
| 20260506135536 | 17 | 124 | 8.0 | 14.5 | 0.00 | 0.66 | 0.05 | 89 | 1008.2 |
| 20260506134515 | 17 | 125 | 8.0 | 17.7 | 0.00 | 0.71 | 0.05 | 89 | 1008.4 |
| 20260506133517 | 17 | 132 | 8.0 | 16.1 | 0.03 | 0.71 | 0.05 | 89 | 1008.4 |
| 20260506132517 | 17 | 140 | 8.0 | 17.7 | 0.03 | 0.76 | 0.05 | 89 | 1008.5 |
| 20260506131517 | 17 | 132 | 8.0 | 17.7 | 0.03 | 0.76 | 0.05 | 90 | 1008.5 |
| 20260506130517 | 17 | 131 | 8.0 | 17.7 | 0.05 | 0.79 | 0.05 | 90 | 1008.7 |
| 20260506125516 | 17 | 143 | 8.0 | 24.1 | 0.05 | 0.79 | 0.05 | 89 | 1008.7 |
| 20260506124536 | 17 | 150 | 9.7 | 24.1 | 0.05 | 0.79 | 0.05 | 89 | 1008.7 |
| 20260506123517 | 17 | 134 | 6.4 | 14.5 | 0.03 | 0.79 | 0.03 | 89 | 1008.7 |
| 20260506122516 | 17 | 143 | 4.8 | 14.5 | 0.03 | 0.79 | 0.03 | 89 | 1008.6 |
| 20260506121515 | 17 | 177 | 4.8 | 16.1 | 0.03 | 0.79 | 0.03 | 89 | 1008.6 |
| 20260506120516 | 17 | 177 | 6.4 | 14.5 | 0.00 | 0.76 | 0.13 | 89 | 1008.6 |
| 20260506115516 | 17 | 153 | 6.4 | 14.5 | 0.00 | 0.76 | 0.13 | 89 | 1008.7 |
| 20260506114516 | 17 | 145 | 6.4 | 16.1 | 0.00 | 0.76 | 0.13 | 89 | 1008.7 |
| 20260506113516 | 17 | 145 | 9.7 | 20.9 | 0.03 | 0.76 | 0.13 | 89 | 1008.7 |
| 20260506112515 | 17 | 142 | 6.4 | 14.5 | 0.05 | 0.79 | 0.13 | 89 | 1008.7 |
| 20260506111556 | 17 | 152 | 6.4 | 20.9 | 0.05 | 0.79 | 0.13 | 88 | 1008.7 |
| 20260506110515 | 17 | 136 | 8.0 | 16.1 | 0.05 | 0.79 | 0.13 | 89 | 1008.8 |
| 20260506105517 | 17 | 133 | 11.3 | 19.3 | 0.05 | 0.79 | 0.13 | 89 | 1008.8 |
| 20260506104517 | 17 | 139 | 9.7 | 22.5 | 0.08 | 0.79 | 0.13 | 88 | 1009.0 |
| 20260506103516 | 17 | 134 | 6.4 | 19.3 | 0.05 | 0.79 | 0.10 | 88 | 1009.0 |
| 20260506102516 | 17 | 127 | 8.0 | 16.1 | 0.05 | 0.79 | 0.08 | 89 | 1009.0 |
| 20260506101516 | 17 | 121 | 6.4 | 12.9 | 0.05 | 0.79 | 0.08 | 88 | 1009.1 |
| 20260506100536 | 17 | 126 | 6.4 | 12.9 | 0.05 | 0.79 | 0.08 | 88 | 1009.3 |
| 20260506095516 | 16 | 125 | 6.4 | 12.9 | 0.05 | 0.76 | 0.05 | 88 | 1009.4 |
| 20260506094515 | 16 | 115 | 3.2 | 11.3 | 0.03 | 0.74 | 0.05 | 88 | 1009.4 |
| 20260506093515 | 16 | 117 | 6.4 | 16.1 | 0.03 | 0.74 | 0.05 | 89 | 1009.4 |
| 20260506092515 | 16 | 113 | 9.7 | 17.7 | 0.00 | 0.71 | 0.03 | 89 | 1009.3 |
| 20260506091517 | 16 | 116 | 9.7 | 16.1 | 0.03 | 0.71 | 0.03 | 88 | 1009.3 |
| 20260506090537 | 16 | 129 | 6.4 | 16.1 | 0.03 | 0.71 | 0.03 | 88 | 1009.2 |
| 20260506085517 | 16 | 120 | 6.4 | 11.3 | 0.03 | 0.71 | 0.03 | 86 | 1009.1 |
| 20260506084516 | 16 | 115 | 6.4 | 11.3 | 0.03 | 0.71 | 0.03 | 86 | 1009.1 |
| 20260506083536 | 16 | 114 | 4.8 | 11.3 | 0.05 | 0.71 | 0.03 | 86 | 1009.0 |
| 20260506082536 | 16 | 124 | 3.2 | 9.7 | 0.05 | 0.71 | 0.03 | 86 | 1009.0 |
| 20260506081516 | 16 | 110 | 4.8 | 9.7 | 0.05 | 0.71 | 0.00 | 86 | 1008.9 |
| 20260506080515 | 16 | 85 | 3.2 | 9.7 | 0.05 | 0.71 | 0.00 | 86 | 1008.8 |
| 20260506073516 | 15 | 67 | 4.8 | 9.7 | 0.05 | 0.69 | 0.10 | 87 | 1009.0 |
| 20260506072516 | 15 | 67 | 6.4 | 11.3 | 0.03 | 0.66 | 0.08 | 87 | 1009.1 |
| 20260506071516 | 15 | 55 | 3.2 | 14.5 | 0.03 | 0.66 | 0.08 | 86 | 1009.0 |
| 20260506070556 | 15 | 51 | 8.0 | 12.9 | 0.03 | 0.64 | 0.05 | 87 | 1009.1 |
| 20260506062517 | 15 | 40 | 3.2 | 9.7 | 0.05 | 0.64 | 0.05 | 87 | 1009.1 |
| 20260506061517 | 15 | 31 | 4.8 | 9.7 | 0.05 | 0.64 | 0.05 | 87 | 1009.1 |
| 20260506060516 | 15 | 33 | 3.2 | 11.3 | 0.05 | 0.61 | 0.05 | 87 | 1009.0 |
| 20260506050556 | 15 | 26 | 3.2 | 9.7 | 0.00 | 0.58 | 0.00 | 87 | 1009.1 |
| 20260506044517 | 14 | 40 | 3.2 | 11.3 | 0.00 | 0.58 | 0.00 | 87 | 1009.0 |
| 20260506043537 | 14 | 48 | 6.4 | 9.7 | 0.00 | 0.58 | 0.00 | 87 | 1009.1 |
| 20260506042517 | 14 | 15 | 4.8 | 9.7 | 0.00 | 0.58 | 0.00 | 87 | 1009.1 |
| 20260506041516 | 13 | 22 | 4.8 | 11.3 | 0.00 | 0.58 | 0.00 | 87 | 1009.0 |
| 20260506040516 | 13 | 27 | 3.2 | 8.0 | 0.00 | 0.58 | 0.00 | 87 | 1009.0 |
| 20260506035517 | 13 | 25 | 3.2 | 8.0 | 0.00 | 0.58 | 0.00 | 87 | 1009.3 |
| 20260506034537 | 14 | 25 | 4.8 | 9.7 | 0.00 | 0.58 | 0.00 | 87 | 1009.3 |
| 20260506033517 | 14 | 28 | 0.0 | 8.0 | 0.00 | 0.58 | 0.00 | 87 | 1009.3 |
| 20260506032537 | 14 | 26 | 4.8 | 8.0 | 0.00 | 0.58 | 0.00 | 87 | 1009.4 |
| 20260506031516 | 14 | 36 | 3.2 | 9.7 | 0.00 | 0.58 | 0.00 | 87 | 1009.5 |
| 20260506030556 | 14 | 32 | 3.2 | 9.7 | 0.00 | 0.58 | 0.00 | 87 | 1009.6 |
| 20260506025516 | 14 | 18 | 4.8 | 9.7 | 0.00 | 0.58 | 0.00 | 87 | 1009.6 |
| 20260506024516 | 14 | 40 | 4.8 | 8.0 | 0.00 | 0.58 | 0.00 | 87 | 1009.8 |
| 20260506023515 | 14 | 30 | 6.4 | 9.7 | 0.00 | 0.58 | 0.00 | 87 | 1009.9 |
| 20260506022516 | 14 | 32 | 3.2 | 9.7 | 0.00 | 0.58 | 0.00 | 87 | 1010.0 |
| 20260506021515 | 14 | 34 | 3.2 | 8.0 | 0.00 | 0.58 | 0.00 | 87 | 1010.0 |
| 20260506020517 | 14 | 33 | 3.2 | 8.0 | 0.00 | 0.58 | 0.00 | 87 | 1010.0 |
| 20260506015517 | 14 | 26 | 1.6 | 8.0 | 0.00 | 0.58 | 0.00 | 87 | 1010.1 |
| 20260506014517 | 14 | 32 | 3.2 | 9.7 | 0.00 | 0.58 | 0.00 | 87 | 1010.0 |
| 20260506013516 | 14 | 17 | 4.8 | 9.7 | 0.00 | 0.58 | 0.00 | 87 | 1010.1 |
| 20260506012516 | 13 | 40 | 3.2 | 6.4 | 0.00 | 0.58 | 0.00 | 88 | 1010.1 |
| 20260506011516 | 13 | 21 | 3.2 | 6.4 | 0.00 | 0.58 | 0.00 | 88 | 1010.1 |
| 20260506010516 | 13 | 27 | 3.2 | 8.0 | 0.00 | 0.58 | 0.00 | 88 | 1010.0 |
| 20260506005516 | 13 | 25 | 3.2 | 12.9 | 0.00 | 0.58 | 0.00 | 88 | 1009.9 |
| 20260506004515 | 13 | 17 | 6.4 | 9.7 | 0.00 | 0.58 | 0.00 | 88 | 1010.0 |
| 20260506003515 | 13 | 23 | 1.6 | 6.4 | 0.00 | 0.58 | 0.00 | 88 | 1010.1 |
| 20260506002515 | 13 | 25 | 4.8 | 11.3 | 0.00 | 0.58 | 0.00 | 88 | 1010.1 |
| 20260506001518 | 13 | 12 | 4.8 | 9.7 | 0.00 | 0.58 | 0.00 | 88 | 1010.1 |
| 20260506000537 | 13 | 30 | 8.0 | 11.3 | 0.00 | 0.58 | 0.00 | 88 | 1010.2 |
| 20260505235557 | 13 | 15 | 8.0 | 11.3 | 0.00 | 0.58 | 0.00 | 88 | 1010.4 |
| 20260505234536 | 13 | 352 | 4.8 | 8.0 | 0.00 | 0.58 | 0.08 | 88 | 1010.6 |
| 20260505233515 | 13 | 11 | 1.6 | 8.0 | 0.00 | 0.58 | 0.08 | 88 | 1010.7 |
| 20260505232516 | 13 | 33 | 3.2 | 8.0 | 0.00 | 0.58 | 0.08 | 88 | 1010.8 |